1484524800.84,7636,5.25,72462.5,-20.15,-21.09,-21.03,0,*58
1484524802.07,7637,5.25,72462.8,-20.15,-21.09,-21.09,0,*53
1484524803.27,7638,5.25,72458.8,-20.13,-21.09,-21.09,0,*5A
1484524804.51,7639,5.25,72458.8,-20.13,-21.13,-21.03,0,*5A
1484524805.74,7640,5.25,72454.0,-20.15,-21.13,-21.09,0,*58
1484524807.02,7641,5.25,72452.8,-20.15,-21.03,-21.03,0,*52
1484524808.29,7642,5.25,72454.0,-20.13,-21.03,-21.03,0,*57
1484524809.52,7643,5.25,72458.0,-20.13,-21.09,-21.03,0,*5C
1484524810.75,7644,5.25,72458.0,-20.13,-21.03,-21.09,0,*5B
1484524812.04,7645,5.25,72452.8,-20.15,-21.03,-21.03,0,*56
1484524813.27,7646,5.25,72454.3,-20.13,-21.03,-21.09,0,*59
1484524814.54,7647,5.25,72454.8,-20.13,-21.03,-21.03,0,*52
1484524815.74,7648,5.25,72456.8,-20.13,-21.09,-21.09,0,*5D
1484524817.0,7649,5.25,72456.0,-20.13,-21.03,-21.03,0,*5C
1484524818.26,7650,5.25,72456.3,-20.13,-21.03,-21.03,0,*54
1484524819.53,7651,5.25,72452.5,-20.13,-21.03,-21.03,0,*55
1484524820.76,7652,5.25,72454.8,-20.13,-21.03,-21.09,0,*5C
1484524822.04,7653,5.25,72454.3,-20.15,-21.03,-21.03,0,*51
1484524823.25,7654,5.25,72454.0,-20.13,-21.09,-21.09,0,*50
1484524824.48,7655,5.25,72452.8,-20.13,-21.09,-21.03,0,*5B
1484524825.74,7656,5.25,72456.5,-20.13,-21.03,-21.03,0,*52
1484524827.01,7657,5.25,72454.5,-20.13,-21.03,-21.03,0,*53
1484524828.27,7658,5.25,72456.3,-20.13,-21.03,-21.03,0,*5C
1484524829.53,7659,5.25,72456.0,-20.13,-21.03,-21.03,0,*5D
1484524830.8,7660,5.25,72454.8,-20.13,-21.03,-21.03,0,*57
1484524832.08,7661,5.25,72452.5,-20.11,-21.03,-20.99,0,*56
1484524833.37,7662,5.25,72452.3,-20.11,-20.99,-20.99,0,*57
1484524834.66,7663,5.25,72454.8,-20.11,-20.99,-20.99,0,*56
1484524835.89,7664,5.25,72454.5,-20.13,-21.09,-21.03,0,*59
1484524837.15,7665,5.25,72456.8,-20.13,-21.03,-21.03,0,*52
1484524838.39,7666,5.25,72456.0,-20.13,-21.09,-21.03,0,*5B
1484524839.62,7667,5.25,72456.0,-20.13,-21.09,-21.03,0,*5A
1484524840.85,7668,5.25,72456.0,-20.13,-21.09,-21.03,0,*55
1484524842.09,7669,5.25,72460.0,-20.13,-21.03,-21.09,0,*54
1484524843.38,7670,5.25,72458.8,-20.11,-20.99,-20.99,0,*54
1484524844.66,7671,5.25,72460.0,-20.11,-20.99,-20.99,0,*55
1484524845.89,7672,5.25,72454.8,-20.13,-21.03,-21.09,0,*5E
1484524847.16,7673,5.25,72454.3,-20.13,-21.03,-21.03,0,*55
1484524848.42,7674,5.25,72454.5,-20.13,-21.03,-21.03,0,*52
1484524849.71,7675,5.25,72452.3,-20.11,-21.03,-20.99,0,*53
1484524850.99,7676,5.25,72454.5,-20.11,-20.99,-21.03,0,*50
1484524852.28,7677,5.25,72458.0,-20.11,-20.99,-20.99,0,*53
1484524853.57,7678,5.25,72454.8,-20.11,-21.03,-21.03,0,*5C
1484524854.85,7679,5.25,72458.3,-20.07,-21.03,-20.99,0,*58
1484524856.14,7680,5.25,72462.5,-20.11,-20.99,-21.03,0,*59
1484524857.42,7681,5.25,72456.5,-20.11,-21.03,-21.03,0,*5A
1484524858.71,7682,5.25,72456.5,-20.11,-21.03,-21.03,0,*59
1484524859.99,7683,5.25,72456.5,-20.11,-20.99,-21.03,0,*5A
1484524861.28,7684,5.25,72454.5,-20.07,-20.99,-21.03,0,*5A
1484524862.56,7685,5.25,72456.0,-20.11,-21.03,-21.03,0,*5E
1484524863.85,7686,5.25,72454.8,-20.11,-21.03,-21.03,0,*5D
1484524865.13,7687,5.25,72456.0,-20.11,-21.03,-21.03,0,*5C
1484524866.42,7688,5.25,72458.3,-20.11,-21.03,-21.03,0,*53
1484524867.7,7689,5.25,72456.8,-20.11,-21.03,-21.03,0,*52
1484524868.99,7690,5.25,72456.8,-20.11,-20.99,-21.03,0,*58
1484524870.28,7691,5.25,72456.5,-20.11,-21.03,-21.03,0,*5B
1484524871.56,7692,5.25,72454.0,-20.11,-21.03,-21.03,0,*58
1484524872.84,7693,5.25,72454.8,-20.07,-21.03,-20.99,0,*5C
1484524874.13,7694,5.25,72456.0,-20.07,-21.03,-21.03,0,*59
1484524875.4,7695,5.25,72456.8,-20.07,-21.03,-21.03,0,*58
1484524876.68,7696,5.25,72458.0,-20.07,-21.03,-21.03,0,*5B
1484524877.97,7697,5.25,72454.0,-20.11,-21.03,-21.03,0,*5D
1484524879.22,7698,5.25,72458.3,-20.07,-21.09,-21.03,0,*5F
1484524880.45,7699,5.25,72458.5,-20.11,-21.09,-21.09,0,*53
1484524881.67,7700,5.25,72456.0,-20.07,-21.09,-21.09,0,*55
1484524882.91,7701,5.25,72456.8,-20.11,-21.17,-21.17,0,*53
1484524884.14,7702,5.25,72456.3,-20.11,-21.17,-21.09,0,*5F
1484524885.36,7703,5.25,72454.8,-20.11,-21.09,-21.09,0,*51
1484524886.59,7704,5.25,72454.8,-20.11,-21.09,-21.09,0,*56
1484524887.81,7705,5.25,72454.0,-20.11,-21.09,-21.09,0,*57
1484524889.04,7706,5.25,72452.3,-20.07,-21.09,-21.17,0,*5C
1484524890.27,7707,5.25,72456.0,-20.11,-21.17,-21.09,0,*5A
1484524891.5,7708,5.25,72454.5,-20.11,-21.17,-21.09,0,*55
1484524892.74,7709,5.25,72452.3,-20.11,-21.17,-21.17,0,*5B
1484524893.97,7710,5.25,72456.3,-20.07,-21.17,-21.17,0,*54
1484524895.19,7711,5.25,72458.3,-20.07,-21.17,-21.09,0,*5A
1484524896.42,7712,5.25,72456.5,-20.11,-21.09,-21.09,0,*51
1484524897.65,7713,5.25,72454.8,-20.07,-21.17,-21.17,0,*57
1484524898.89,7714,5.25,72458.0,-20.11,-21.17,-21.17,0,*57
1484524900.12,7715,5.25,72456.5,-20.11,-21.09,-21.17,0,*59
1484524901.35,7716,5.25,72452.8,-20.11,-21.17,-21.09,0,*5A
1484524902.58,7717,5.25,72456.0,-20.11,-21.09,-21.09,0,*54
1484524903.84,7718,5.25,72458.8,-20.11,-21.23,-21.17,0,*5C
1484524905.1,7719,5.25,72458.0,-20.11,-21.23,-21.17,0,*5D
1484524906.37,7720,5.25,72456.3,-20.11,-21.23,-21.17,0,*57
1484524907.65,7721,5.25,72456.8,-20.11,-21.23,-21.33,0,*50
1484524908.91,7722,5.25,72456.8,-20.11,-21.33,-21.17,0,*54
1484524910.18,7723,5.25,72458.8,-20.11,-21.17,-21.23,0,*54
1484524911.48,7724,5.25,72458.3,-20.11,-21.23,-21.23,0,*54
1484524912.77,7725,5.25,72456.8,-20.11,-21.33,-21.23,0,*54
1484524914.05,7726,5.25,72454.8,-20.11,-21.23,-21.33,0,*57
1484524915.35,7727,5.25,72452.5,-20.11,-21.23,-21.23,0,*57
1484524916.64,7728,5.25,72454.5,-20.11,-21.23,-21.23,0,*58
1484524917.93,7729,5.19,72452.3,-20.11,-21.33,-21.23,0,*58
1484524919.21,7730,5.25,72454.5,-20.11,-21.23,-21.33,0,*50
1484524920.51,7731,5.25,72458.5,-20.11,-21.33,-21.23,0,*51
1484524921.79,7732,5.25,72452.5,-20.11,-21.23,-21.33,0,*52
1484524923.07,7733,5.25,72456.3,-20.11,-21.33,-21.33,0,*52
1484524924.36,7734,5.25,72454.8,-20.11,-21.33,-21.23,0,*54
1484524925.65,7735,5.25,72456.0,-20.11,-21.33,-21.33,0,*54
1484524926.88,7736,5.25,72454.8,-20.11,-21.47,-21.39,0,*5E
1484524928.13,7737,5.25,72456.3,-20.07,-21.39,-21.33,0,*5B
1484524929.39,7738,5.25,72454.0,-20.11,-21.39,-21.33,0,*53
1484524930.62,7739,5.25,72456.8,-20.11,-21.39,-21.39,0,*58
1484524931.82,7740,5.25,72454.5,-20.13,-21.43,-21.43,0,*54
1484524933.06,7741,5.25,72458.0,-20.11,-21.39,-21.39,0,*57
1484524934.29,7742,5.25,72458.5,-20.11,-21.39,-21.47,0,*5D
1484524935.5,7743,5.25,72452.8,-20.13,-21.39,-21.39,0,*57
1484524936.73,7744,5.25,72456.0,-20.11,-21.39,-21.39,0,*52
1484524937.96,7745,5.25,72456.5,-20.11,-21.39,-21.39,0,*53
1484524939.2,7746,5.25,72454.5,-20.11,-21.39,-21.39,0,*50
1484524940.4,7747,5.25,72454.5,-20.13,-21.43,-21.43,0,*53
1484524941.64,7748,5.25,72452.0,-20.13,-21.53,-21.43,0,*5D
1484524942.91,7749,5.25,72456.0,-20.13,-21.53,-21.53,0,*5D
1484524944.17,7750,5.25,72452.3,-20.13,-21.53,-21.53,0,*55
1484524945.41,7751,5.25,72450.0,-20.13,-21.53,-21.43,0,*55
1484524946.62,7752,5.25,72448.5,-20.13,-21.39,-21.43,0,*5A
1484524947.82,7753,5.25,72450.0,-20.13,-21.43,-21.43,0,*56
1484524949.06,7754,5.25,72450.8,-20.13,-21.53,-21.43,0,*50
1484524950.27,7755,5.25,72446.5,-20.13,-21.43,-21.43,0,*50
1484524951.48,7756,5.25,72448.3,-20.13,-21.43,-21.39,0,*5E
1484524952.71,7757,5.25,72454.8,-20.15,-21.43,-21.39,0,*59
1484524953.92,7758,5.25,72454.0,-20.13,-21.43,-21.39,0,*50
1484524955.18,7759,5.25,72454.8,-20.13,-21.27,-21.27,0,*5C
1484524956.42,7760,5.25,72450.3,-20.13,-21.39,-21.27,0,*59
1484524957.69,7761,5.25,72454.0,-20.13,-21.23,-21.27,0,*53
1484524958.93,7762,5.25,72454.8,-20.13,-21.23,-21.13,0,*57
1484524960.2,7763,5.25,72452.5,-20.13,-21.23,-21.23,0,*55
1484524961.43,7764,5.25,72446.0,-20.15,-21.13,-21.13,0,*54
1484524962.64,7765,5.25,72446.8,-20.13,-21.13,-21.13,0,*53
1484524963.9,7766,5.25,72448.8,-20.15,-21.23,-21.13,0,*55
1484524965.11,7767,5.25,72454.5,-20.13,-21.13,-21.13,0,*51
1484524966.32,7768,5.25,72452.3,-20.13,-21.13,-21.13,0,*5E
1484524967.53,7769,5.25,72448.0,-20.13,-21.13,-21.13,0,*5F
1484524968.73,7770,5.25,72446.5,-20.13,-21.13,-21.09,0,*5C
1484524969.97,7771,5.25,72448.8,-20.13,-21.09,-21.03,0,*5C
1484524971.22,7772,5.19,72442.3,-20.15,-21.03,-21.09,0,*59
1484524972.46,7773,5.25,72450.0,-20.13,-21.09,-21.03,0,*5E
1484524973.69,7774,5.25,72448.0,-20.13,-21.03,-21.09,0,*59
1484524974.95,7775,5.25,72448.8,-20.13,-21.03,-21.03,0,*52
1484524976.22,7776,5.25,72448.5,-20.13,-21.03,-21.03,0,*51
1484524977.45,7777,5.25,72450.8,-20.13,-21.09,-21.03,0,*5A
1484524978.71,7778,5.25,72450.5,-20.13,-21.03,-21.03,0,*5F
1484524979.98,7779,5.25,72444.3,-20.13,-21.03,-21.03,0,*5E
1484524981.21,7780,5.25,72450.8,-20.13,-21.09,-21.03,0,*52
1484524982.41,7781,5.25,72450.0,-20.13,-20.93,-21.09,0,*5B
1484524983.66,7782,5.25,72448.8,-20.13,-21.03,-20.93,0,*52
1484524984.9,7783,5.25,72448.8,-20.13,-21.03,-20.89,0,*58
1484524986.11,7784,5.25,72448.3,-20.13,-20.93,-20.93,0,*5C
1484524987.35,7785,5.25,72452.0,-20.15,-20.93,-20.93,0,*5B
1484524988.59,7786,5.25,72450.3,-20.13,-20.79,-20.93,0,*5A
1484524989.81,7787,5.25,72448.5,-20.13,-20.93,-20.89,0,*54
1484524991.05,7788,5.25,72444.5,-20.11,-20.89,-20.89,0,*52
1484524992.34,7789,5.25,72448.3,-20.11,-20.83,-20.83,0,*53
1484524993.6,7790,5.25,72448.8,-20.11,-20.89,-20.83,0,*51
1484524994.87,7791,5.25,72450.3,-20.11,-20.89,-20.83,0,*50
1484524996.15,7792,5.25,72452.3,-20.11,-20.83,-20.83,0,*59
1484524997.42,7793,5.25,72450.3,-20.11,-20.89,-20.83,0,*52
1484524998.65,7794,5.25,72450.0,-20.11,-20.73,-20.73,0,*5F
1484524999.88,7795,5.25,72444.8,-20.11,-20.73,-20.73,0,*5E
1484525001.14,7796,5.25,72448.8,-20.07,-20.83,-20.73,0,*55
1484525002.37,7797,5.25,72450.8,-20.11,-20.73,-20.69,0,*57
1484525003.61,7798,5.25,72448.0,-20.11,-20.73,-20.73,0,*53
1484525004.83,7799,5.25,72448.3,-20.07,-20.73,-20.73,0,*55
1484525006.06,7800,5.25,72450.5,-20.07,-20.73,-20.69,0,*51
1484525007.29,7801,5.25,72452.3,-20.11,-20.73,-20.69,0,*57
1484525008.52,7802,5.19,72448.3,-20.11,-20.73,-20.69,0,*54
1484525009.75,7803,5.25,72452.0,-20.11,-20.73,-20.73,0,*5E
1484525011.01,7804,5.25,72450.5,-20.07,-20.83,-20.69,0,*5A
1484525012.24,7805,5.25,72450.0,-20.11,-20.73,-20.73,0,*58
1484525013.47,7806,5.25,72452.0,-20.07,-20.73,-20.69,0,*57
1484525014.72,7807,5.25,72448.3,-20.07,-20.73,-20.83,0,*52
1484525015.95,7808,5.25,72450.8,-20.07,-20.73,-20.73,0,*52
1484525017.17,7809,5.25,72448.8,-20.07,-20.73,-20.73,0,*53
1484525018.43,7810,5.19,72448.5,-20.07,-20.83,-20.73,0,*54
1484525019.66,7811,5.25,72454.3,-20.07,-20.73,-20.73,0,*5A
1484525020.94,7812,5.25,72454.0,-20.07,-20.83,-20.83,0,*59
1484525022.22,7813,5.25,72454.5,-20.07,-20.83,-20.83,0,*58
1484525023.5,7814,5.25,72452.8,-20.07,-20.83,-20.83,0,*5F
1484525024.78,7815,5.25,72452.5,-20.07,-20.83,-20.83,0,*5E
1484525026.04,7816,5.25,72450.3,-20.07,-20.83,-20.89,0,*57
1484525027.32,7817,5.25,72454.8,-20.07,-20.83,-20.83,0,*5C
1484525028.58,7818,5.25,72454.8,-20.07,-20.89,-20.83,0,*59
1484525029.84,7819,5.25,72452.8,-20.07,-20.83,-20.89,0,*58
1484525031.1,7820,5.25,72454.8,-20.05,-20.79,-20.83,0,*5F
1484525032.36,7821,5.25,72450.0,-20.05,-20.83,-20.79,0,*5E
1484525033.61,7822,5.25,72456.0,-20.03,-20.83,-20.79,0,*5B
1484525034.85,7823,5.25,72454.5,-20.05,-20.93,-20.83,0,*58
1484525036.08,7824,5.25,72458.3,-20.05,-20.93,-20.83,0,*5F
1484525037.32,7825,5.25,72452.5,-20.05,-20.99,-20.93,0,*55
1484525038.55,7826,5.25,72452.0,-20.05,-20.99,-20.93,0,*56
1484525039.79,7827,5.25,72454.0,-20.05,-20.93,-20.99,0,*57
1484525041.02,7828,5.25,72448.3,-20.05,-20.93,-20.99,0,*58
1484525042.26,7829,5.25,72452.5,-20.03,-20.99,-20.93,0,*5F
1484525043.49,7830,5.25,72448.8,-20.05,-20.93,-20.99,0,*51
1484525044.73,7831,5.25,72450.5,-20.03,-20.99,-20.93,0,*56
1484525045.96,7832,5.25,72450.0,-20.05,-20.93,-20.99,0,*53
1484525047.18,7833,5.25,72454.0,-20.03,-20.93,-20.93,0,*5E
1484525048.41,7834,5.25,72450.3,-20.05,-20.99,-20.93,0,*55
1484525049.65,7835,5.25,72452.5,-20.05,-20.93,-20.99,0,*54
1484525050.88,7836,5.25,72452.0,-20.03,-20.93,-20.99,0,*51
1484525052.12,7837,5.25,72450.8,-20.03,-20.93,-20.83,0,*5B
1484525053.35,7838,5.25,72448.5,-20.05,-20.93,-20.83,0,*52
1484525054.59,7839,5.25,72446.8,-20.03,-20.99,-20.93,0,*5E
1484525055.8,7840,5.25,72450.0,-20.05,-20.93,-20.93,0,*5C
1484525057.04,7841,5.25,72450.3,-20.03,-20.99,-20.93,0,*51
1484525058.27,7842,5.25,72454.3,-20.05,-20.93,-20.83,0,*5F
1484525059.5,7843,5.25,72448.0,-20.05,-20.93,-20.83,0,*5E
1484525060.71,7844,5.25,72454.3,-20.03,-20.93,-20.93,0,*5E
1484525061.95,7845,5.25,72454.0,-20.03,-20.93,-20.83,0,*5E
1484525063.21,7846,5.25,72454.3,-20.03,-20.99,-20.99,0,*5C
1484525064.45,7847,5.25,72452.3,-20.03,-20.93,-20.83,0,*5C
1484525065.7,7848,5.25,72450.0,-20.05,-20.83,-20.79,0,*51
1484525066.95,7849,5.25,72448.0,-20.05,-20.79,-20.79,0,*55
1484525068.22,7850,5.25,72448.3,-20.03,-20.83,-20.83,0,*5B
1484525069.48,7851,5.25,72450.5,-20.03,-20.83,-20.83,0,*5A
1484525070.74,7852,5.25,72444.3,-20.05,-20.83,-20.83,0,*5F
1484525071.95,7853,5.25,72448.3,-20.05,-20.93,-20.93,0,*5E
1484525073.21,7854,5.25,72444.0,-20.03,-20.83,-20.83,0,*5F
1484525074.47,7855,5.25,72450.0,-20.05,-20.83,-20.83,0,*58
1484525075.7,7856,5.25,72450.8,-20.05,-20.83,-20.93,0,*5A
1484525076.96,7857,5.25,72446.8,-20.03,-20.83,-20.79,0,*59
1484525078.21,7858,5.25,72446.8,-20.05,-20.79,-20.79,0,*55
1484525079.47,7859,5.25,72446.8,-20.03,-20.83,-20.79,0,*57
1484525080.73,7860,5.25,72450.0,-20.03,-20.79,-20.79,0,*58
1484525081.99,7861,5.25,72450.0,-20.03,-20.83,-20.79,0,*5C
1484525083.24,7862,5.25,72456.8,-20.03,-20.79,-20.79,0,*5A
1484525084.5,7863,5.25,72448.8,-20.03,-20.79,-20.83,0,*5E
1484525085.76,7864,5.19,72448.0,-20.01,-20.69,-20.79,0,*5F
1484525087.04,7865,5.25,72448.0,-20.01,-20.79,-20.79,0,*5F
1484525088.3,7866,5.25,72450.5,-20.01,-20.83,-20.69,0,*58
1484525089.56,7867,5.25,72452.0,-20.01,-20.79,-20.69,0,*5C
1484525090.84,7868,5.25,72450.0,-20.01,-20.79,-20.79,0,*52
1484525092.05,7869,5.19,72446.3,-19.99,-20.63,-20.73,0,*59
1484525093.27,7870,5.25,72448.0,-19.99,-20.63,-20.59,0,*59
1484525094.53,7871,5.25,72452.8,-20.01,-20.79,-20.69,0,*5B
1484525095.76,7872,5.25,72450.0,-20.01,-20.69,-20.69,0,*59
1484525097.0,7873,5.19,72446.8,-20.01,-20.69,-20.63,0,*52
1484525098.24,7874,5.25,72450.5,-20.01,-20.69,-20.63,0,*55
1484525099.45,7875,5.25,72448.0,-19.99,-20.63,-20.69,0,*5F
1484525100.66,7876,5.25,72446.3,-19.99,-20.63,-20.59,0,*5F
1484525101.9,7877,5.25,72450.0,-20.01,-20.69,-20.63,0,*56
1484525103.14,7878,5.25,72452.3,-20.01,-20.69,-20.63,0,*59
1484525104.35,7879,5.25,72450.0,-19.99,-20.63,-20.59,0,*50
1484525105.57,7880,5.25,72454.0,-19.99,-20.63,-20.63,0,*5F
1484525106.81,7881,5.25,72450.0,-20.01,-20.69,-20.63,0,*5F
1484525108.02,7882,5.25,72450.0,-19.99,-20.63,-20.59,0,*54
1484525109.26,7883,5.19,72444.0,-20.01,-20.69,-20.69,0,*57
1484525110.47,7884,5.25,72450.0,-19.99,-20.63,-20.59,0,*52
1484525111.69,7885,5.25,72448.0,-19.99,-20.59,-20.59,0,*5A
1484525112.92,7886,5.25,72450.5,-19.99,-20.49,-20.59,0,*58
1484525114.16,7887,5.25,72448.0,-19.99,-20.49,-20.59,0,*59
1484525115.4,7888,5.25,72454.8,-20.01,-20.69,-20.63,0,*56
1484525116.61,7889,5.25,72452.8,-19.99,-20.63,-20.63,0,*56
1484525117.83,7890,5.25,72454.3,-19.99,-20.59,-20.63,0,*57
1484525119.04,7891,5.25,72450.8,-19.99,-20.63,-20.59,0,*56
1484525120.26,7892,5.25,72450.8,-19.99,-20.59,-20.59,0,*5C
1484525121.52,7893,5.25,72448.3,-19.95,-20.53,-20.53,0,*51
1484525122.78,7894,5.25,72448.3,-19.99,-20.49,-20.49,0,*5A
1484525124.02,7895,5.25,72444.0,-19.95,-20.43,-20.53,0,*56
1484525125.26,7896,5.25,72450.0,-19.95,-20.43,-20.53,0,*55
1484525126.52,7897,5.25,72450.0,-19.95,-20.53,-20.53,0,*55
1484525127.76,7898,5.25,72450.8,-19.95,-20.53,-20.59,0,*50
1484525128.97,7899,5.25,72448.8,-19.99,-20.59,-20.59,0,*57
1484525130.21,7900,5.25,72448.3,-19.95,-20.59,-20.53,0,*50
1484525131.45,7901,5.25,72450.3,-19.95,-20.59,-20.53,0,*51
1484525132.72,7902,5.25,72454.8,-19.93,-20.59,-20.53,0,*54
1484525133.98,7903,5.25,72452.5,-19.93,-20.53,-20.59,0,*55
1484525135.22,7904,5.25,72452.5,-19.95,-20.59,-20.53,0,*54
1484525136.5,7905,5.25,72448.3,-19.93,-20.53,-20.53,0,*59
1484525137.74,7906,5.25,72448.5,-19.93,-20.39,-20.43,0,*57
1484525139.02,7907,5.25,72450.0,-19.93,-20.53,-20.53,0,*5B
1484525140.29,7908,5.25,72450.0,-19.93,-20.53,-20.43,0,*55
1484525141.5,7909,5.25,72444.8,-19.95,-20.43,-20.59,0,*58
1484525142.74,7910,5.25,72450.3,-19.93,-20.43,-20.59,0,*56
1484525143.98,7911,5.25,72450.8,-19.93,-20.43,-20.43,0,*5C
1484525145.25,7912,5.25,72452.3,-19.93,-20.43,-20.53,0,*5E
1484525146.49,7913,5.25,72450.8,-19.93,-20.59,-20.59,0,*5E
1484525147.75,7914,5.25,72454.0,-19.93,-20.43,-20.53,0,*58
1484525148.99,7915,5.25,72454.5,-19.93,-20.43,-20.43,0,*58
1484525150.28,7916,5.25,72452.5,-19.93,-20.53,-20.53,0,*5B
1484525151.54,7917,5.25,72448.3,-19.93,-20.43,-20.53,0,*5B
1484525152.82,7918,5.25,72450.3,-19.93,-20.53,-20.53,0,*55
1484525154.09,7919,5.25,72450.8,-19.93,-20.53,-20.59,0,*5E
1484525155.35,7920,5.25,72454.8,-19.93,-20.53,-20.59,0,*54
1484525156.6,7921,5.25,72450.8,-19.91,-20.53,-20.53,0,*5D
1484525157.86,7922,5.25,72448.5,-19.93,-20.53,-20.43,0,*5D
1484525159.12,7923,5.25,72450.8,-19.91,-20.49,-20.49,0,*5F
1484525160.38,7924,5.25,72452.8,-19.91,-20.49,-20.49,0,*58
1484525161.64,7925,5.25,72450.0,-19.91,-20.49,-20.49,0,*59
1484525162.9,7926,5.25,72448.3,-19.91,-20.53,-20.53,0,*5A
1484525164.16,7927,5.25,72448.8,-19.93,-20.59,-20.53,0,*53
1484525165.42,7928,5.25,72452.0,-19.91,-20.49,-20.49,0,*54
1484525166.68,7929,5.25,72450.8,-19.91,-20.49,-20.53,0,*5E
1484525167.94,7930,5.25,72448.5,-19.93,-20.53,-20.59,0,*55
1484525169.2,7931,5.25,72452.3,-19.91,-20.49,-20.49,0,*5C
1484525170.41,7932,5.25,72454.0,-19.91,-20.59,-20.59,0,*5F
1484525171.67,7933,5.25,72454.3,-19.93,-20.53,-20.59,0,*56
1484525172.93,7934,5.25,72450.8,-19.91,-20.53,-20.49,0,*52
1484525174.19,7935,5.25,72454.0,-19.91,-20.49,-20.49,0,*58
1484525175.43,7936,5.19,72448.5,-19.93,-20.59,-20.59,0,*59
1484525176.69,7937,5.25,72454.0,-19.91,-20.53,-20.49,0,*51
1484525177.95,7938,5.25,72450.8,-19.91,-20.53,-20.49,0,*5E
1484525179.24,7939,5.25,72448.0,-19.89,-20.49,-20.49,0,*5D
1484525180.5,7940,5.25,72452.3,-19.91,-20.49,-20.49,0,*5A
1484525181.79,7941,5.25,72452.8,-19.89,-20.49,-20.49,0,*52
1484525183.08,7942,5.25,72454.0,-19.89,-20.49,-20.49,0,*51
1484525184.36,7943,5.25,72452.3,-19.89,-20.53,-20.49,0,*5B
1484525185.65,7944,5.25,72454.0,-19.89,-20.53,-20.49,0,*5C
1484525186.91,7945,5.25,72454.0,-19.91,-20.53,-20.49,0,*54
1484525188.2,7946,5.25,72448.8,-19.89,-20.53,-20.49,0,*5E
1484525189.49,7947,5.25,72450.3,-19.89,-20.49,-20.49,0,*54
1484525190.78,7948,5.25,72452.0,-19.89,-20.49,-20.49,0,*5B
1484525192.06,7949,5.25,72454.3,-19.89,-20.53,-20.53,0,*5A
1484525193.35,7950,5.25,72452.0,-19.89,-20.49,-20.53,0,*59
1484525194.64,7951,5.25,72450.5,-19.89,-20.49,-20.53,0,*58
1484525195.9,7952,5.25,72452.5,-19.89,-20.63,-20.49,0,*58
1484525197.19,7953,5.25,72450.8,-19.89,-20.53,-20.53,0,*51
1484525198.45,7954,5.25,72452.8,-19.85,-20.49,-20.43,0,*50
1484525199.74,7955,5.25,72454.5,-19.89,-20.53,-20.53,0,*57
1484525201.03,7956,5.19,72448.0,-19.89,-20.49,-20.53,0,*5F
1484525202.26,7957,5.25,72452.3,-19.89,-20.63,-20.63,0,*55
1484525203.53,7958,5.25,72454.5,-19.85,-20.49,-20.59,0,*57
1484525204.79,7959,5.25,72452.0,-19.85,-20.53,-20.63,0,*54
1484525206.05,7960,5.19,72450.5,-19.89,-20.63,-20.53,0,*52
1484525207.29,7961,5.25,72448.8,-19.89,-20.63,-20.63,0,*50
1484525208.56,7962,5.19,72450.0,-19.85,-20.49,-20.59,0,*5E
1484525209.79,7963,5.25,72452.0,-19.89,-20.69,-20.63,0,*58
1484525211.03,7964,5.25,72454.3,-19.89,-20.63,-20.63,0,*55
1484525212.27,7965,5.25,72452.8,-19.85,-20.59,-20.73,0,*50
1484525213.51,7966,5.25,72454.8,-19.89,-20.63,-20.63,0,*57
1484525214.75,7967,5.25,72454.8,-19.85,-20.63,-20.59,0,*53
1484525215.99,7968,5.25,72458.0,-19.85,-20.63,-20.63,0,*55
1484525217.23,7969,5.25,72452.3,-19.85,-20.63,-20.59,0,*5D
1484525218.47,7970,5.25,72454.0,-19.89,-20.63,-20.63,0,*50
1484525219.7,7971,5.25,72456.0,-19.89,-20.69,-20.59,0,*52
1484525220.94,7972,5.25,72456.0,-19.89,-20.69,-20.69,0,*52
1484525222.17,7973,5.25,72454.0,-19.85,-20.63,-20.63,0,*5F
1484525223.43,7974,5.25,72454.5,-19.85,-20.79,-20.63,0,*53
1484525224.67,7975,5.25,72450.0,-19.85,-20.63,-20.59,0,*50
1484525225.93,7976,5.19,72448.0,-19.89,-20.83,-20.69,0,*52
1484525227.17,7977,5.25,72450.5,-19.85,-20.73,-20.63,0,*5A
1484525228.42,7978,5.25,72450.8,-19.85,-20.63,-20.79,0,*5F
1484525229.66,7979,5.25,72450.8,-19.85,-20.73,-20.73,0,*55
1484525230.89,7980,5.19,72448.0,-19.85,-20.73,-20.73,0,*53
1484525232.12,7981,5.25,72450.8,-19.85,-20.73,-20.73,0,*52
1484525233.36,7982,5.19,72450.5,-19.85,-20.63,-20.73,0,*50
1484525234.57,7983,5.25,72450.8,-19.83,-20.63,-20.73,0,*57
1484525235.78,7984,5.25,72450.0,-19.83,-20.63,-20.73,0,*50
1484525236.99,7985,5.25,72452.0,-19.83,-20.59,-20.73,0,*58
1484525238.21,7986,5.19,72452.0,-19.83,-20.63,-20.59,0,*5A
1484525239.45,7987,5.19,72448.3,-19.85,-20.63,-20.63,0,*54
1484525240.69,7988,5.25,72454.0,-19.85,-20.63,-20.59,0,*52
1484525241.93,7989,5.25,72450.8,-19.85,-20.63,-20.59,0,*53
1484525243.17,7990,5.25,72454.0,-19.85,-20.63,-20.63,0,*52
1484525244.38,7991,5.19,72448.5,-19.83,-20.63,-20.63,0,*55
1484525245.59,7992,5.19,72448.5,-19.83,-20.63,-20.63,0,*56
1484525246.8,7993,5.19,72448.3,-19.83,-20.59,-20.59,0,*57
1484525248.02,7994,5.25,72454.3,-19.83,-20.63,-20.59,0,*59
1484525249.23,7995,5.25,72452.8,-19.83,-20.59,-20.59,0,*51
1484525250.45,7996,5.19,72450.0,-19.83,-20.59,-20.59,0,*52
1484525251.66,7997,5.25,72454.5,-19.83,-20.63,-20.63,0,*53
1484525252.87,7998,5.25,72452.5,-19.83,-20.63,-20.59,0,*55
1484525254.09,7999,5.19,72450.8,-19.83,-20.63,-20.63,0,*5D
1484525255.35,8000,5.19,72454.0,-19.81,-20.59,-20.53,0,*53
1484525256.56,8001,5.25,72456.3,-19.83,-20.63,-20.73,0,*5B
1484525257.78,8002,5.19,72454.8,-19.83,-20.63,-20.59,0,*50
1484525258.99,8003,5.25,72456.5,-19.83,-20.63,-20.63,0,*58
1484525260.22,8004,5.25,72454.3,-19.81,-20.69,-20.59,0,*5E
1484525261.46,8005,5.19,72452.3,-19.83,-20.79,-20.63,0,*55
1484525262.69,8006,5.25,72452.5,-19.83,-20.63,-20.79,0,*56
1484525263.89,8007,5.25,72452.0,-19.83,-20.73,-20.59,0,*54
1484525265.13,8008,5.25,72452.0,-19.81,-20.59,-20.69,0,*52
1484525266.37,8009,5.19,72452.0,-19.81,-20.59,-20.69,0,*53
1484525267.58,8010,5.19,72452.3,-19.83,-20.73,-20.73,0,*5A
1484525268.79,8011,5.19,72448.0,-19.83,-20.69,-20.59,0,*58
1484525269.99,8012,5.25,72452.5,-19.83,-20.73,-20.69,0,*53
1484525271.19,8013,5.25,72452.5,-19.83,-20.73,-20.73,0,*59
1484525272.43,8014,5.25,72452.8,-19.83,-20.79,-20.63,0,*55
1484525273.66,8015,5.25,72454.0,-19.83,-20.79,-20.59,0,*5D
1484525274.89,8016,5.19,72450.0,-19.85,-20.73,-20.59,0,*52
1484525276.1,8017,5.19,72450.3,-19.83,-20.73,-20.63,0,*5C
1484525277.31,8018,5.25,72454.0,-19.83,-20.73,-20.63,0,*53
1484525278.52,8019,5.25,72452.0,-19.83,-20.73,-20.63,0,*52
1484525279.76,8020,5.25,72454.0,-19.81,-20.59,-20.59,0,*5B
1484525281.02,8021,5.25,72452.5,-19.81,-20.69,-20.53,0,*53
1484525282.23,8022,5.25,72452.3,-19.83,-20.63,-20.63,0,*5B
1484525283.47,8023,5.19,72450.8,-19.81,-20.59,-20.69,0,*5B
1484525284.69,8024,5.19,72448.3,-19.83,-20.73,-20.79,0,*57
1484525285.92,8025,5.25,72450.0,-19.81,-20.73,-20.69,0,*55
1484525287.16,8026,5.25,72450.8,-19.81,-20.69,-20.73,0,*56
1484525288.39,8027,5.19,72450.0,-19.83,-20.79,-20.73,0,*54
1484525289.59,8028,5.25,72448.8,-19.83,-20.73,-20.73,0,*51
1484525290.83,8029,5.19,72448.8,-19.81,-20.69,-20.73,0,*59
1484525292.03,8030,5.19,72450.5,-19.83,-20.73,-20.73,0,*58
1484525293.26,8031,5.25,72448.8,-19.81,-20.69,-20.69,0,*5B
1484525294.5,8032,5.25,72452.3,-19.81,-20.69,-20.73,0,*53
1484525295.7,8033,5.19,72448.8,-19.83,-20.73,-20.69,0,*50
1484525296.91,8034,5.25,72452.0,-19.83,-20.73,-20.73,0,*5C
1484525298.14,8035,5.19,72448.8,-19.83,-20.79,-20.73,0,*57
1484525299.37,8036,5.25,72452.0,-19.81,-20.73,-20.59,0,*54
1484525300.6,8037,5.25,72456.8,-19.81,-20.69,-20.69,0,*5D
1484525301.84,8038,5.25,72452.0,-19.81,-20.69,-20.69,0,*52
1484525303.07,8039,5.25,72452.8,-19.81,-20.73,-20.73,0,*53
1484525304.3,8040,5.25,72452.0,-19.81,-20.69,-20.73,0,*56
1484525305.51,8041,5.25,72452.5,-19.83,-20.73,-20.73,0,*5E
1484525306.76,8042,5.19,72452.8,-19.83,-20.79,-20.79,0,*5D